Vorticity
16 15 13 10 7 13 12 -2 -3 6 8 10 10 7 5 4 3 4 4 5 6 5 5 4 6 7 5 3 2 3 3 5 6 7 8 7 5 5 5 5 6 8 10 11 12 12 11 9 8 8 8 9 9 8 7 5 5 5 5 5 4 4 4
12 11 10 9 8 11 8 -0 2 9 9 8 7 5 4 3 3 4 4 5 5 5 5 6 6 5 3 3 3 3 5 7 8 8 7 5 5 5 5 6 8 10 12 13 14 13 12 10 10 10 9 9 9 7 5 5 5 5 5 5 4 4 4
9 9 9 6 5 6 6 5 7 8 6 5 6 6 5 4 3 4 5 5 5 6 6 6 5 4 3 3 3 4 6 8 9 8 6 6 5 6 6 8 9 11 14 14 14 14 13 12 11 10 9 8 7 6 6 6 7 6 6 6 5 6 6
8 6 5 4 5 7 8 8 7 6 5 6 7 6 4 3 4 5 6 6 6 6 7 6 5 4 3 3 4 5 7 8 7 6 6 6 6 7 7 8 10 11 12 13 14 14 13 11 10 9 7 6 6 6 7 8 8 8 8 8 8 8 7
5 2 4 6 8 9 8 8 7 7 7 7 6 4 3 4 5 6 6 5 6 7 6 5 4 3 2 3 5 5 6 6 5 5 6 7 8 8 8 8 9 10 11 12 13 13 12 10 9 8 7 7 8 8 8 9 8 8 8 8 8 8 8
4 5 7 9 9 9 8 7 8 8 7 6 5 4 4 6 6 5 6 6 8 7 5 4 2 2 3 4 5 4 4 5 5 6 7 7 7 7 7 8 8 9 10 11 12 12 11 10 10 10 9 9 9 8 8 8 9 8 8 8 6 7 8
6 7 8 9 8 8 7 7 8 8 7 5 4 4 5 5 5 6 7 8 8 6 4 2 2 3 4 5 4 4 4 5 5 5 6 6 6 6 7 7 7 9 10 11 12 13 12 12 12 11 11 10 9 9 8 8 8 6 5 7 8 7 8
7 8 9 9 7 7 6 7 8 7 6 5 5 5 5 5 7 8 9 8 6 4 3 2 3 4 5 5 5 4 4 4 3 4 5 5 5 6 6 6 7 8 10 11 12 12 13 12 11 10 9 9 8 8 9 9 8 7 6 7 10 11 11
9 10 9 7 7 7 8 8 8 7 6 6 6 6 8 9 10 9 8 5 4 3 3 3 3 5 6 6 5 4 3 3 2 4 5 5 5 5 6 7 8 9 11 11 11 11 12 11 10 10 10 9 6 4 5 6 7 9 11 10 10 12 14
12 10 8 7 8 8 8 8 7 7 7 7 8 10 11 10 8 6 5 3 3 3 2 3 4 5 5 5 4 3 3 2 3 5 6 5 5 6 7 8 9 11 13 12 11 12 12 11 10 9 7 5 4 2 1 2 5 7 8 9 9 9 10
11 8 8 9 9 8 7 8 7 7 8 9 11 11 8 6 5 4 4 3 3 2 2 3 4 4 4 4 4 3 3 3 4 6 6 5 6 7 8 10 12 13 13 13 13 12 12 10 8 6 4 3 4 5 3 4 9 9 8 9 10 10 10
8 7 9 9 8 7 7 7 6 7 9 10 10 8 6 6 5 4 3 3 2 1 2 3 3 3 3 4 4 3 3 3 4 6 6 5 7 9 10 11 13 12 11 12 14 13 11 9 7 6 6 6 6 7 6 7 11 12 11 11 11 13 13
7 7 7 7 7 7 6 6 6 7 9 9 8 7 8 8 6 4 2 1 1 1 2 2 2 3 3 4 4 4 4 3 4 7 7 6 8 10 11 12 12 10 9 13 15 14 10 7 7 8 9 8 6 6 8 10 11 12 14 16 14 14 12
5 5 7 7 6 6 5 5 5 7 8 7 7 8 8 7 3 2 1 1 1 2 2 1 2 3 4 5 5 5 4 3 5 8 7 7 8 9 11 11 10 8 8 12 13 10 7 6 9 11 9 7 7 9 11 11 13 13 13 12 11 10 10
4 6 7 6 6 6 5 5 5 6 6 5 6 6 6 4 2 2 2 2 1 1 1 1 2 4 5 6 6 5 3 3 7 9 7 7 7 9 10 9 9 8 7 10 10 7 7 10 11 10 7 7 10 11 13 14 16 15 11 7 6 7 10
5 5 5 6 6 5 5 6 5 5 4 3 4 5 5 4 3 3 3 1 -0 -0 1 2 3 6 7 7 6 4 3 5 9 9 6 5 6 8 9 7 8 9 7 8 10 10 11 11 10 8 7 10 12 13 15 17 15 12 8 7 7 9 11
4 5 5 5 5 6 7 6 4 3 3 3 4 4 4 4 4 5 3 -0 -1 0 1 3 5 7 7 7 6 4 4 7 10 8 5 4 6 7 7 5 7 9 7 7 11 13 13 10 8 8 9 12 14 14 17 15 10 7 7 7 8 9 10
5 6 5 4 5 7 6 4 3 3 3 4 4 2 2 5 6 6 3 0 2 2 3 6 7 8 8 8 6 4 5 9 10 7 4 4 5 6 5 5 7 9 7 8 14 15 12 8 7 9 12 14 15 15 15 10 5 5 7 7 7 7 8
7 7 6 4 5 5 4 4 4 4 3 2 0 -1 3 7 7 5 3 3 4 4 5 7 8 8 8 7 6 5 7 10 9 6 4 4 5 5 4 4 8 9 7 10 16 14 9 8 9 12 14 15 15 14 10 5 3 5 5 5 6 6 6
8 8 6 3 4 5 4 4 3 2 1 1 1 2 5 6 5 5 5 4 5 6 8 9 8 8 8 6 6 7 8 9 8 5 4 4 5 4 4 6 9 7 8 14 16 11 8 10 11 14 15 15 14 10 6 3 4 4 4 3 5 6 5
9 8 6 6 8 6 4 5 4 3 3 4 3 2 3 4 6 7 7 7 8 9 9 8 7 7 7 7 8 9 8 8 8 6 5 4 5 4 5 9 9 7 11 17 13 8 9 11 12 14 15 14 11 7 4 4 4 3 3 3 4 6 6
9 8 8 10 9 7 7 7 5 4 6 6 4 3 5 7 9 10 11 11 11 10 7 6 6 6 7 9 10 10 8 8 7 6 5 4 4 3 6 10 9 9 15 16 10 8 10 11 12 14 13 11 9 6 5 6 5 4 3 3 5 6 6
8 8 8 8 7 7 7 6 7 9 8 6 5 5 6 8 12 13 12 11 9 7 4 4 6 8 10 11 11 10 9 8 7 6 5 4 3 4 8 11 10 13 16 12 8 10 12 12 14 13 11 10 8 7 7 7 6 5 3 4 5 6 6
9 8 8 7 7 7 7 8 10 7 4 6 8 6 6 10 12 10 9 7 5 4 5 7 9 11 12 12 11 10 9 7 7 6 5 4 4 6 10 12 13 16 14 10 10 12 12 13 14 11 9 9 8 8 10 9 7 6 5 5 6 7 6
10 9 8 7 7 7 8 8 6 6 12 15 9 4 6 10 9 7 6 4 3 5 9 10 12 12 12 12 11 10 8 7 7 6 4 4 5 8 11 13 16 16 11 10 13 13 13 13 12 9 8 8 8 9 11 10 9 8 6 5 6 7 6
10 9 9 8 7 7 6 5 9 18 21 11 0 2 8 8 7 6 4 2 6 10 11 12 13 12 11 11 11 10 8 7 7 5 3 4 6 9 12 16 17 14 10 12 13 12 12 12 9 8 8 8 9 10 10 11 10 9 7 6 7 6 6
9 9 9 8 7 7 4 5 12 16 9 -1 -2 5 8 7 5 3 3 7 10 11 12 13 11 9 11 12 11 9 8 7 6 4 3 6 8 11 15 17 15 11 9 12 12 11 12 11 8 8 8 8 9 10 10 10 9 8 7 6 7 6 6
7 8 8 7 7 8 8 10 12 8 2 2 4 5 4 5 4 3 7 11 10 11 11 9 9 12 13 11 10 11 10 7 4 4 6 9 10 14 17 17 12 9 11 12 11 11 12 10 8 8 8 9 10 10 10 9 8 8 6 6 7 6 6
7 7 7 7 7 7 8 8 5 2 2 5 5 4 4 5 5 8 11 11 10 11 9 7 13 15 7 7 15 15 9 6 5 6 9 10 12 15 18 14 10 10 11 11 11 11 10 8 8 8 8 9 9 9 9 8 8 8 7 7 7 6 6
10 8 8 8 7 6 5 4 3 4 6 7 5 4 5 6 9 11 11 10 10 10 8 10 16 13 9 17 19 9 3 7 9 9 10 11 14 17 16 12 9 10 11 11 11 10 8 8 8 8 8 8 9 8 8 7 7 8 7 7 7 6 6
8 7 8 7 6 6 5 5 4 4 5 5 4 5 7 9 11 11 9 11 11 9 10 15 16 16 22 23 8 -3 5 11 10 10 11 13 16 18 14 10 9 10 10 11 11 9 7 8 8 8 8 8 9 8 7 7 6 6 6 5 6 7 6
4 6 6 6 6 6 6 5 4 3 5 6 7 8 10 10 10 10 10 12 11 8 11 17 14 11 12 5 -4 1 11 11 9 11 12 15 18 16 11 9 10 10 10 11 10 8 7 8 7 8 9 8 8 8 7 8 7 6 6 5 5 7 6
4 4 5 5 5 5 5 6 6 6 7 8 9 10 11 10 11 11 11 11 10 10 15 18 12 6 4 2 4 10 11 8 10 12 12 17 19 13 9 10 10 10 11 10 9 7 8 9 8 9 9 8 8 8 7 8 8 7 7 6 6 7 7
5 6 6 6 6 7 7 7 8 9 10 10 10 11 10 11 11 10 10 10 10 13 17 14 8 7 8 9 9 10 9 9 12 12 15 20 16 10 10 10 9 11 11 9 9 8 8 9 9 9 9 8 9 9 7 8 8 7 7 7 7 7 7
8 7 6 7 8 8 8 8 9 10 10 10 10 10 10 11 10 8 9 10 10 13 16 13 10 10 9 9 9 10 10 10 11 14 19 18 13 10 10 8 9 11 10 9 9 9 9 10 9 9 9 8 8 8 8 7 7 7 7 7 7 7 8
8 8 8 9 10 9 9 10 10 9 10 9 9 10 10 9 8 7 8 10 13 17 19 16 12 9 7 8 10 10 9 10 13 17 20 16 11 10 8 8 11 11 9 9 9 9 10 10 9 8 8 8 7 7 7 7 7 7 7 7 7 7 8
10 10 10 9 9 8 9 9 10 10 10 10 9 9 8 6 7 9 11 15 20 22 17 10 7 7 8 9 9 8 9 13 15 19 19 13 9 9 8 9 11 9 9 10 9 9 10 9 8 8 7 7 7 6 7 7 7 8 7 7 8 7 7
Height
5820 5821 5821 5822 5822 5823 5823 5824 5824 5824 5824 5825 5825 5826 5826 5826 5826 5827 5827 5827 5827 5826 5826 5825 5825 5824 5823 5822 5821 5820 5819 5818 5817 5815 5814 5812 5810 5807 5805 5803 5801 5798 5796 5793 5790 5787 5784 5782 5779 5778 5776 5774 5772 5769 5767 5765 5763 5761 5760 5758 5756 5754 5752
5819 5819 5820 5821 5821 5822 5822 5822 5823 5823 5823 5824 5824 5824 5824 5824 5825 5825 5825 5825 5824 5824 5823 5823 5822 5822 5821 5820 5819 5818 5817 5815 5814 5812 5811 5808 5806 5804 5802 5800 5798 5795 5793 5790 5787 5784 5781 5778 5776 5773 5772 5770 5768 5766 5764 5761 5759 5757 5755 5753 5751 5749 5747
5817 5818 5819 5819 5820 5821 5821 5821 5821 5822 5822 5822 5822 5823 5822 5823 5823 5823 5823 5823 5822 5822 5821 5821 5820 5820 5819 5818 5817 5816 5814 5813 5811 5809 5807 5805 5804 5802 5800 5797 5795 5792 5789 5786 5784 5781 5778 5775 5773 5770 5768 5766 5764 5762 5760 5758 5755 5753 5751 5748 5746 5743 5741
5816 5817 5817 5818 5819 5819 5820 5820 5820 5820 5820 5821 5821 5821 5821 5821 5821 5821 5821 5820 5820 5820 5819 5819 5818 5818 5817 5815 5814 5813 5812 5810 5808 5806 5804 5802 5800 5798 5796 5793 5791 5788 5785 5782 5780 5777 5775 5772 5769 5766 5764 5761 5759 5757 5755 5753 5750 5747 5746 5743 5740 5737 5734
5814 5815 5816 5817 5818 5818 5818 5818 5818 5819 5819 5819 5819 5819 5819 5819 5819 5819 5819 5818 5818 5818 5817 5817 5816 5815 5814 5813 5812 5810 5809 5807 5805 5803 5801 5799 5796 5794 5792 5789 5786 5784 5781 5778 5776 5773 5770 5768 5765 5762 5760 5757 5754 5752 5749 5747 5744 5741 5739 5737 5734 5731 5728
5813 5814 5814 5815 5816 5816 5816 5817 5817 5817 5817 5817 5817 5818 5818 5818 5817 5817 5817 5816 5816 5816 5815 5815 5814 5813 5812 5811 5809 5808 5806 5804 5802 5800 5797 5795 5792 5790 5788 5785 5783 5780 5777 5775 5772 5769 5767 5764 5762 5759 5756 5753 5750 5747 5745 5742 5739 5736 5732 5730 5728 5724 5721
5811 5812 5813 5814 5814 5814 5815 5815 5815 5815 5816 5816 5816 5816 5816 5816 5815 5815 5815 5814 5814 5814 5813 5812 5811 5810 5809 5808 5807 5805 5803 5801 5798 5796 5794 5791 5789 5787 5784 5782 5779 5777 5774 5771 5769 5766 5763 5761 5758 5755 5752 5749 5745 5742 5739 5737 5735 5731 5727 5723 5720 5717 5714
5810 5810 5811 5812 5812 5812 5813 5813 5813 5814 5814 5814 5814 5814 5814 5813 5813 5813 5812 5812 5812 5811 5811 5810 5809 5808 5807 5805 5804 5802 5800 5797 5795 5793 5790 5788 5786 5784 5781 5778 5776 5773 5770 5768 5765 5763 5760 5757 5755 5752 5749 5746 5742 5738 5734 5731 5729 5726 5723 5719 5714 5710 5707
5808 5809 5810 5810 5810 5811 5811 5811 5812 5812 5812 5812 5812 5812 5812 5811 5811 5811 5810 5810 5810 5809 5809 5808 5807 5805 5804 5802 5800 5798 5796 5794 5792 5790 5788 5785 5783 5781 5778 5775 5772 5770 5767 5764 5762 5759 5756 5753 5751 5748 5746 5743 5740 5735 5730 5726 5723 5719 5716 5714 5710 5704 5700
5806 5807 5808 5808 5809 5809 5809 5809 5810 5810 5810 5810 5810 5810 5810 5809 5809 5809 5808 5808 5808 5807 5806 5805 5804 5802 5801 5799 5797 5795 5793 5791 5789 5787 5785 5782 5780 5777 5774 5772 5769 5766 5763 5760 5758 5755 5752 5750 5747 5745 5742 5739 5736 5732 5727 5721 5717 5714 5711 5707 5705 5700 5694
5804 5805 5806 5806 5807 5807 5807 5807 5808 5808 5808 5808 5808 5808 5808 5807 5807 5807 5806 5806 5805 5805 5804 5802 5801 5799 5797 5796 5794 5792 5790 5788 5786 5784 5781 5779 5776 5773 5771 5768 5765 5762 5759 5756 5754 5751 5748 5746 5743 5741 5738 5735 5731 5727 5724 5718 5712 5709 5706 5702 5697 5694 5689
5802 5803 5804 5804 5805 5805 5805 5806 5806 5806 5806 5806 5806 5806 5806 5805 5805 5804 5804 5804 5803 5802 5801 5799 5797 5796 5794 5792 5790 5788 5787 5784 5782 5780 5778 5775 5772 5770 5767 5765 5762 5759 5756 5753 5750 5747 5744 5741 5739 5736 5733 5730 5726 5722 5719 5714 5707 5702 5699 5696 5691 5687 5682
5800 5801 5802 5802 5802 5803 5803 5804 5804 5804 5804 5804 5804 5804 5803 5803 5802 5802 5801 5801 5800 5799 5797 5796 5794 5793 5791 5789 5787 5785 5783 5781 5779 5777 5774 5772 5769 5766 5764 5761 5758 5755 5752 5749 5746 5743 5740 5737 5734 5731 5728 5725 5722 5718 5713 5709 5705 5698 5693 5690 5686 5682 5677
5798 5799 5799 5800 5800 5800 5801 5801 5802 5802 5802 5802 5801 5801 5801 5800 5799 5799 5798 5798 5797 5796 5794 5793 5791 5789 5787 5785 5784 5782 5780 5777 5775 5773 5770 5768 5765 5762 5760 5757 5754 5751 5748 5745 5742 5739 5736 5733 5729 5726 5722 5719 5715 5712 5709 5704 5701 5695 5689 5684 5681 5678 5673
5796 5797 5797 5798 5798 5798 5799 5799 5799 5799 5799 5799 5798 5798 5798 5797 5796 5796 5795 5794 5793 5792 5791 5789 5788 5786 5784 5782 5780 5778 5776 5774 5772 5769 5767 5764 5762 5759 5756 5753 5750 5747 5745 5741 5738 5735 5731 5728 5725 5721 5717 5714 5710 5707 5703 5700 5695 5692 5687 5682 5678 5673 5668
5794 5794 5795 5795 5795 5796 5796 5796 5796 5796 5796 5796 5795 5795 5795 5794 5793 5793 5792 5791 5790 5789 5788 5786 5785 5783 5781 5778 5776 5775 5773 5770 5768 5766 5763 5760 5758 5755 5752 5750 5747 5743 5741 5737 5734 5731 5727 5723 5720 5716 5712 5709 5706 5702 5698 5694 5691 5687 5684 5679 5674 5669 5664
5791 5792 5792 5792 5792 5793 5793 5793 5793 5793 5793 5793 5793 5792 5792 5791 5790 5789 5788 5788 5787 5786 5784 5783 5781 5779 5777 5775 5773 5771 5769 5767 5764 5762 5759 5757 5754 5751 5749 5746 5743 5739 5736 5733 5729 5726 5723 5719 5715 5712 5708 5705 5701 5697 5693 5690 5686 5683 5680 5676 5670 5664 5659
5789 5789 5789 5789 5790 5790 5790 5790 5790 5790 5790 5790 5789 5789 5788 5787 5787 5786 5785 5784 5783 5782 5781 5779 5777 5775 5773 5771 5769 5767 5765 5763 5760 5758 5756 5753 5750 5748 5745 5742 5738 5735 5732 5728 5725 5722 5719 5715 5711 5708 5704 5701 5697 5693 5690 5687 5683 5679 5675 5672 5667 5661 5655
5786 5786 5786 5786 5786 5786 5787 5787 5787 5787 5787 5786 5786 5785 5785 5784 5783 5783 5782 5781 5780 5778 5777 5775 5773 5771 5769 5767 5765 5763 5761 5759 5757 5754 5752 5750 5747 5744 5741 5738 5734 5731 5728 5724 5721 5717 5714 5711 5708 5704 5701 5697 5694 5690 5687 5684 5680 5676 5672 5667 5663 5658 5651
5783 5783 5783 5783 5783 5783 5783 5783 5783 5784 5783 5783 5783 5782 5782 5781 5780 5779 5778 5777 5776 5774 5773 5771 5769 5767 5765 5763 5762 5760 5757 5755 5753 5751 5748 5746 5743 5740 5737 5733 5730 5727 5723 5720 5717 5713 5710 5707 5704 5701 5697 5694 5691 5687 5684 5681 5677 5673 5668 5664 5659 5654 5648
5780 5780 5780 5780 5780 5780 5780 5780 5780 5780 5780 5780 5779 5779 5778 5777 5776 5775 5774 5773 5772 5770 5769 5767 5765 5763 5761 5759 5758 5756 5754 5751 5749 5747 5744 5742 5739 5736 5732 5729 5726 5723 5719 5716 5713 5710 5707 5703 5700 5697 5694 5691 5687 5684 5681 5678 5674 5669 5664 5660 5655 5650 5644
5776 5777 5777 5777 5776 5776 5776 5776 5777 5777 5776 5776 5776 5775 5775 5774 5773 5772 5770 5769 5768 5766 5764 5763 5761 5759 5757 5755 5754 5752 5750 5748 5745 5743 5741 5738 5735 5732 5728 5725 5722 5719 5715 5712 5709 5706 5704 5700 5697 5694 5691 5688 5685 5682 5678 5674 5670 5666 5661 5656 5652 5646 5640
5773 5773 5773 5773 5773 5772 5772 5772 5773 5773 5773 5772 5772 5772 5771 5770 5769 5768 5767 5765 5763 5762 5760 5758 5757 5755 5753 5751 5749 5748 5746 5744 5742 5739 5737 5734 5731 5727 5724 5721 5717 5714 5711 5708 5705 5702 5699 5696 5694 5690 5687 5684 5681 5678 5675 5671 5666 5662 5658 5653 5647 5642 5636
5769 5769 5769 5769 5769 5769 5769 5769 5769 5769 5769 5768 5768 5768 5767 5766 5765 5764 5762 5761 5759 5757 5756 5754 5753 5751 5749 5747 5745 5743 5742 5740 5738 5735 5733 5730 5727 5723 5720 5717 5713 5710 5707 5705 5702 5699 5696 5692 5689 5686 5683 5680 5677 5674 5671 5667 5663 5658 5654 5649 5643 5638 5632
5765 5766 5766 5766 5765 5765 5765 5765 5765 5764 5764 5764 5764 5764 5763 5762 5761 5759 5758 5756 5754 5753 5751 5750 5748 5747 5745 5743 5741 5739 5737 5736 5734 5731 5729 5726 5722 5719 5716 5712 5709 5706 5704 5701 5698 5695 5692 5689 5686 5683 5679 5676 5673 5669 5666 5663 5659 5655 5650 5645 5639 5634 5629
5762 5762 5762 5762 5761 5761 5761 5761 5760 5759 5759 5759 5760 5759 5759 5758 5756 5755 5753 5752 5750 5749 5747 5745 5744 5742 5740 5739 5737 5735 5733 5732 5729 5727 5724 5722 5718 5715 5712 5709 5706 5703 5700 5698 5695 5692 5689 5686 5683 5679 5676 5673 5669 5666 5662 5658 5654 5650 5646 5641 5636 5630 5624
5758 5758 5758 5757 5757 5757 5757 5756 5756 5756 5756 5756 5756 5755 5754 5753 5751 5750 5749 5747 5746 5744 5743 5741 5739 5738 5736 5734 5733 5731 5729 5727 5725 5723 5720 5718 5715 5711 5708 5705 5702 5700 5697 5695 5692 5689 5686 5683 5680 5676 5673 5670 5666 5663 5659 5654 5650 5646 5642 5637 5632 5627 5621
5754 5754 5753 5753 5753 5753 5753 5752 5752 5752 5752 5752 5751 5750 5749 5748 5746 5745 5744 5743 5742 5740 5738 5737 5735 5733 5731 5730 5728 5727 5725 5723 5721 5719 5716 5714 5711 5708 5705 5702 5699 5697 5695 5692 5689 5686 5683 5680 5677 5674 5671 5667 5664 5660 5656 5652 5648 5643 5639 5634 5629 5624 5618
5749 5749 5749 5749 5749 5749 5748 5748 5748 5748 5748 5747 5747 5746 5744 5743 5742 5741 5740 5739 5737 5736 5734 5733 5731 5729 5727 5725 5724 5722 5721 5719 5717 5715 5712 5710 5707 5704 5701 5699 5697 5695 5692 5690 5687 5684 5681 5678 5675 5672 5669 5665 5661 5657 5653 5648 5644 5640 5636 5631 5626 5621 5615
5745 5745 5745 5745 5745 5745 5744 5744 5744 5744 5743 5743 5742 5741 5739 5738 5737 5736 5735 5734 5733 5732 5730 5728 5726 5724 5723 5721 5720 5719 5717 5715 5713 5711 5709 5706 5703 5700 5698 5696 5694 5692 5690 5687 5685 5682 5679 5676 5673 5670 5667 5663 5659 5655 5651 5646 5642 5638 5633 5629 5623 5618 5613
5741 5741 5741 5741 5741 5740 5740 5740 5740 5739 5739 5738 5737 5736 5735 5734 5733 5732 5731 5730 5729 5727 5726 5724 5722 5721 5719 5718 5717 5715 5713 5711 5709 5707 5705 5702 5699 5697 5695 5693 5691 5689 5687 5685 5682 5680 5677 5675 5672 5669 5665 5661 5657 5654 5650 5646 5641 5637 5632 5627 5622 5617 5611
5738 5737 5737 5737 5736 5736 5736 5736 5736 5735 5734 5733 5732 5732 5731 5730 5729 5728 5727 5726 5724 5723 5722 5720 5719 5717 5716 5715 5713 5711 5709 5707 5705 5703 5701 5698 5696 5694 5692 5690 5689 5687 5684 5682 5680 5677 5675 5673 5670 5667 5664 5660 5656 5652 5648 5644 5640 5636 5632 5627 5622 5616 5610
5734 5733 5733 5733 5732 5732 5732 5732 5731 5731 5730 5729 5728 5727 5726 5725 5725 5724 5723 5721 5720 5719 5717 5716 5715 5714 5712 5711 5709 5707 5706 5704 5702 5700 5697 5695 5692 5691 5689 5688 5686 5684 5682 5679 5677 5675 5673 5670 5668 5665 5661 5658 5654 5650 5646 5642 5638 5634 5630 5625 5621 5616 5610
5730 5729 5729 5729 5728 5728 5728 5727 5727 5726 5726 5725 5724 5723 5722 5721 5720 5719 5718 5717 5716 5715 5713 5712 5711 5710 5709 5707 5706 5704 5702 5700 5698 5696 5693 5691 5689 5688 5687 5685 5683 5681 5679 5677 5675 5673 5670 5668 5665 5662 5659 5656 5652 5648 5644 5641 5636 5632 5628 5624 5619 5615 5609
5726 5725 5725 5725 5724 5724 5723 5723 5722 5722 5721 5720 5719 5718 5718 5717 5716 5715 5714 5713 5712 5711 5709 5708 5707 5706 5705 5703 5702 5700 5698 5696 5694 5692 5690 5688 5686 5685 5684 5683 5681 5678 5676 5675 5673 5670 5668 5665 5663 5660 5657 5653 5650 5646 5642 5639 5635 5631 5627 5622 5618 5613 5609
5721 5721 5721 5721 5720 5720 5719 5719 5718 5717 5716 5715 5714 5714 5713 5712 5711 5711 5710 5709 5708 5706 5705 5704 5703 5702 5701 5699 5697 5696 5694 5692 5690 5688 5686 5685 5683 5683 5681 5680 5678 5676 5674 5672 5670 5668 5666 5663 5660 5657 5655 5651 5648 5644 5641 5637 5633 5629 5625 5621 5617 5612 5608
5717 5717 5717 5716 5716 5715 5714 5714 5714 5713 5712 5711 5710 5709 5709 5708 5707 5706 5706 5705 5704 5702 5701 5700 5699 5698 5696 5695 5693 5692 5690 5688 5686 5684 5683 5682 5681 5680 5678 5677 5675 5673 5671 5670 5668 5666 5664 5661 5658 5655 5652 5649 5646 5643 5639 5636 5632 5628 5624 5620 5615 5611 5606